Weather History for Charlottesville, VA

Change the Weather History Date:

Thursday, December 4, 2014

  Actual Average Record
Temperature  
Mean Temperature 39 °F 41 °F  
Max Temperature 45 °F 50 °F 73 °F (2012)
Min Temperature 32 °F 31 °F 11 °F (2002)
Degree Days  
Heating Degree Days 26 24  
Month to date heating degree days 74 95  
Since 1 July heating degree days 928 986  
Cooling Degree Days 0 0  
Month to date cooling degree days 0 0  
Year to date cooling degree days 1096 1035  
Moisture  
Dew Point 29 °F    
Average Humidity 66    
Maximum Humidity 92    
Minimum Humidity 40    
Precipitation  
Precipitation 0.08 in 0.12 in 3.46 in (1948)
Month to date precipitation 0.50 0.50  
Year to date precipitation 36.38 40.06  
Sea Level Pressure  
Sea Level Pressure 30.41 in    
Wind  
Wind Speed 2 mph (South)    
Max Wind Speed 7 mph    
Max Gust Speed 10 mph    
Visibility 10 miles    
Events Rain    
T = Trace of Precipitation, MM = Missing Value Source: NWS Daily Summary

Daily Weather History Graph

Daily Weather History Graph

Search for Another Location

Airport:

Trip Planner

Search our weather history database for the weather conditions in past years. The results will help you decide how hot, cold, wet, or windy it might be!

Date:

Astronomy

Dec. 04, 2014 Rise Set
Actual Time 7:14 AM EST 4:53 PM EST
Civil Twilight 6:44 AM EST 5:23 PM EST
Nautical Twilight 6:12 AM EST 5:55 PM EST
Astronomical Twilight 5:40 AM EST 6:27 PM EST
Moon 3:52 PM EST (12/4) 5:05 AM EST (12/4)
Length of Visible Light 10h 38m
Length of Day
9h 39m
Waxing Gibbous, 96% of the Moon is Illuminated
Dec 4
Waxing Gibbous
Dec 6
Full
Dec 14
Last Quarter
Dec 21
New
Dec 28
First Quarter

Hourly Weather History & Observations

Time (EST) Temp. Windchill Dew Point Humidity Pressure Visibility Wind Dir Wind Speed Gust Speed Precip Events Conditions
12:53 AM 45.0 °F 41.8 °F 23.0 °F 42% 30.30 in 10.0 mi NW 5.8 mph - N/A   Clear
1:53 AM 44.1 °F 40.8 °F 21.9 °F 42% 30.32 in 10.0 mi WNW 5.8 mph - N/A   Clear
2:53 AM 39.0 °F 34.8 °F 26.1 °F 60% 30.33 in 10.0 mi North 5.8 mph - N/A   Clear
3:53 AM 37.9 °F 33.5 °F 25.0 °F 60% 30.34 in 10.0 mi ENE 5.8 mph - N/A   Clear
4:53 AM 37.0 °F 33.3 °F 27.0 °F 67% 30.34 in 10.0 mi East 4.6 mph - N/A   Clear
5:53 AM 36.0 °F - 26.1 °F 67% 30.37 in 10.0 mi Calm Calm - N/A   Clear
6:53 AM 34.0 °F 31.0 °F 27.0 °F 75% 30.40 in 10.0 mi West 3.5 mph - N/A   Clear
7:53 AM 34.0 °F - 27.0 °F 75% 30.41 in 10.0 mi Calm Calm - N/A   Clear
8:53 AM 36.0 °F 33.3 °F 30.0 °F 79% 30.44 in 10.0 mi South 3.5 mph - N/A   Clear
9:53 AM 37.9 °F 35.5 °F 28.9 °F 70% 30.45 in 10.0 mi South 3.5 mph - N/A   Clear
10:53 AM 39.9 °F - 28.0 °F 63% 30.47 in 10.0 mi Calm Calm - N/A   Clear
11:53 AM 42.1 °F 40.2 °F 27.0 °F 55% 30.44 in 10.0 mi SE 3.5 mph - N/A   Clear
12:53 PM 43.0 °F 40.3 °F 28.0 °F 56% 30.40 in 10.0 mi South 4.6 mph - N/A   Clear
1:53 PM 42.1 °F 40.2 °F 27.0 °F 55% 30.40 in 10.0 mi South 3.5 mph - N/A   Clear
2:53 PM 43.0 °F - 28.0 °F 56% 30.40 in 10.0 mi Calm Calm - N/A   Clear
3:53 PM 42.1 °F 40.2 °F 28.9 °F 60% 30.42 in 10.0 mi South 3.5 mph - N/A   Overcast
4:53 PM 42.1 °F - 28.9 °F 60% 30.41 in 10.0 mi Calm Calm - N/A   Overcast
5:53 PM 39.9 °F - 33.1 °F 77% 30.43 in 10.0 mi Calm Calm - 0.00 in Rain Light Rain
6:53 PM 39.9 °F - 32.0 °F 73% 30.44 in 10.0 mi Calm Calm - 0.00 in   Overcast
7:53 PM 39.0 °F - 35.1 °F 86% 30.45 in 10.0 mi Calm Calm - 0.00 in Rain Light Rain
8:53 PM 37.9 °F - 35.1 °F 89% 30.46 in 9.0 mi Calm Calm - 0.01 in Rain Light Rain
9:53 PM 39.0 °F - 36.0 °F 89% 30.46 in 9.0 mi Calm Calm - 0.01 in   Overcast
10:53 PM 39.0 °F - 36.0 °F 89% 30.47 in 6.0 mi Calm Calm - 0.01 in Rain Light Rain
11:53 PM 37.9 °F - 36.0 °F 93% 30.47 in 6.0 mi Calm Calm - 0.05 in   Overcast